Overview Statistics Trail Chart Weather Telemetry Raw packets
 

This is the latest recevied weather packets stored in our database for station/object W8KJR. If no packets are shown the sender has not sent any weather packets the latest 10 day(s).

<< 9 10 11 12 13 >>
Time Temp. Humidity Pressure Rain* Wind** Luminosity Snow
1777789711 1.11° C 88% 1016 hPa 0 mm - - -
1777788809 1.11° C 86% 1016.1 hPa 0 mm - - -
1777787907 1.67° C 87% 1016.3 hPa 0 mm - - -
1777787007 1.67° C 87% 1016.1 hPa 0 mm - - -
1777786105 1.67° C 87% 1016.2 hPa 0 mm - - -
1777785201 1.67° C 86% 1016.3 hPa 0 mm - - -
1777784298 2.22° C 85% 1016.5 hPa 0 mm - - -
1777783394 2.22° C 87% 1016.2 hPa 0 mm - - -
1777782489 2.22° C 85% 1016.3 hPa 0 mm - - -
1777781586 2.78° C 85% 1016.4 hPa 0 mm - - -
1777780683 2.78° C 84% 1016.4 hPa 0 mm - - -
1777779780 3.33° C 85% 1016.2 hPa 0 mm - - -
1777778878 3.33° C 85% 1016.2 hPa 0 mm - - -
1777777977 3.89° C 83% 1016.4 hPa 0 mm - - -
1777777078 3.89° C 77% 1016.3 hPa 0 mm - - -
1777776175 4.44° C 74% 1016.5 hPa 0 mm - - -
1777775270 4.44° C 74% 1016.8 hPa 0 mm - - -
1777774369 5° C 73% 1016.7 hPa 0 mm - - -
1777773467 5° C 73% 1016.5 hPa 0 mm - - -
1777772563 5° C 73% 1016.3 hPa 0 mm - - -
1777771661 5.56° C 68% 1016.4 hPa 0 mm - - -
1777770758 5.56° C 67% 1016.4 hPa 0 mm - - -
1777769854 5.56° C 64% 1016.3 hPa 0 mm - - -
1777768952 6.11° C 63% 1016.4 hPa 0 mm - - -
1777768048 6.67° C 59% 1016.4 hPa 0 mm - - -

* Rain latest hour (hover to see other rain measurements)
** Current wind speed in m/s (hover to see current wind gust speed)